| time (UTC) | temp F | wind direction | speed knots | gust knots | rain 1hr in | rain 24hr in | rain mn in | humidity % | barometer mb |
| 20260506044404 | 50 | 159 | 0.0 | 0.0 | 0.08 | 0.59 | 0.06 | 94 | 1006.3 |
| 20260506043904 | 50 | 159 | 0.0 | 0.0 | 0.08 | 0.59 | 0.06 | 94 | 1006.2 |
| 20260506043405 | 50 | 159 | 0.0 | 0.0 | 0.08 | 0.58 | 0.05 | 94 | 1006.3 |
| 20260506042905 | 50 | 159 | 0.0 | 0.0 | 0.08 | 0.57 | 0.04 | 94 | 1006.3 |
| 20260506042405 | 50 | 159 | 0.0 | 0.0 | 0.07 | 0.56 | 0.03 | 94 | 1006.4 |
| 20260506041904 | 50 | 159 | 0.0 | 0.0 | 0.08 | 0.56 | 0.03 | 94 | 1006.4 |
| 20260506041404 | 50 | 159 | 0.0 | 0.0 | 0.08 | 0.55 | 0.02 | 94 | 1006.6 |
| 20260506040905 | 50 | 159 | 0.0 | 0.0 | 0.07 | 0.54 | 0.01 | 94 | 1006.7 |
| 20260506035904 | 50 | 159 | 0.0 | 0.0 | 0.09 | 0.53 | 0.53 | 94 | 1006.5 |
| 20260506035405 | 50 | 159 | 0.0 | 0.0 | 0.09 | 0.52 | 0.52 | 94 | 1006.6 |
| 20260506034905 | 50 | 159 | 0.0 | 0.0 | 0.10 | 0.52 | 0.52 | 94 | 1006.6 |
| 20260506034404 | 50 | 159 | 0.0 | 0.0 | 0.10 | 0.51 | 0.51 | 93 | 1006.7 |
| 20260506033905 | 50 | 159 | 0.0 | 0.0 | 0.11 | 0.51 | 0.51 | 93 | 1006.8 |
| 20260506033404 | 51 | 159 | 0.0 | 0.0 | 0.10 | 0.50 | 0.50 | 93 | 1007.2 |
| 20260506032904 | 51 | 159 | 0.0 | 0.0 | 0.09 | 0.49 | 0.49 | 93 | 1007.4 |
| 20260506032404 | 51 | 159 | 0.0 | 0.0 | 0.10 | 0.49 | 0.49 | 94 | 1007.4 |
| 20260506031904 | 51 | 155 | 0.0 | 0.0 | 0.09 | 0.48 | 0.48 | 93 | 1007.0 |
| 20260506031405 | 51 | 155 | 0.0 | 2.6 | 0.09 | 0.48 | 0.48 | 93 | 1007.0 |
| 20260506030405 | 51 | 83 | 0.0 | 0.0 | 0.08 | 0.46 | 0.46 | 94 | 1007.0 |
| 20260506025905 | 51 | 83 | 0.0 | 0.0 | 0.07 | 0.44 | 0.44 | 93 | 1006.7 |
| 20260506025404 | 51 | 83 | 0.0 | 0.0 | 0.06 | 0.43 | 0.43 | 93 | 1006.6 |
| 20260506024904 | 51 | 83 | 0.0 | 0.0 | 0.06 | 0.42 | 0.42 | 93 | 1006.6 |
| 20260506024404 | 51 | 83 | 0.0 | 0.0 | 0.05 | 0.41 | 0.41 | 93 | 1006.6 |
| 20260506023904 | 51 | 83 | 0.0 | 0.0 | 0.04 | 0.40 | 0.40 | 93 | 1006.6 |
| 20260506023404 | 51 | 83 | 0.0 | 0.0 | 0.04 | 0.40 | 0.40 | 93 | 1006.6 |
| 20260506020404 | 52 | 83 | 0.0 | 0.0 | 0.05 | 0.38 | 0.38 | 93 | 1006.7 |
| 20260506015904 | 52 | 83 | 0.0 | 0.0 | 0.04 | 0.37 | 0.37 | 93 | 1006.7 |
| 20260506015405 | 52 | 83 | 0.0 | 0.0 | 0.04 | 0.37 | 0.37 | 93 | 1006.7 |
| 20260506014905 | 52 | 83 | 0.0 | 0.0 | 0.03 | 0.36 | 0.36 | 93 | 1006.7 |
| 20260506014404 | 52 | 83 | 0.0 | 0.0 | 0.03 | 0.36 | 0.36 | 93 | 1006.7 |
| 20260506013904 | 52 | 83 | 0.0 | 0.0 | 0.03 | 0.36 | 0.36 | 92 | 1006.6 |
| 20260506013404 | 52 | 83 | 0.0 | 0.0 | 0.04 | 0.36 | 0.36 | 93 | 1006.4 |
| 20260506012904 | 52 | 83 | 0.0 | 0.0 | 0.05 | 0.36 | 0.36 | 92 | 1006.4 |
| 20260506012404 | 53 | 91 | 0.0 | 0.0 | 0.05 | 0.35 | 0.35 | 92 | 1006.3 |
| 20260506011905 | 53 | 138 | 0.0 | 0.0 | 0.06 | 0.34 | 0.34 | 92 | 1006.3 |
| 20260506011404 | 53 | 138 | 0.0 | 0.0 | 0.07 | 0.34 | 0.34 | 93 | 1006.3 |
| 20260506010904 | 53 | 138 | 0.0 | 0.0 | 0.07 | 0.33 | 0.33 | 92 | 1006.2 |
| 20260506010405 | 53 | 138 | 0.0 | 0.0 | 0.10 | 0.33 | 0.33 | 92 | 1006.2 |
| 20260506005904 | 54 | 138 | 0.0 | 0.0 | 0.14 | 0.33 | 0.33 | 92 | 1006.2 |
| 20260506005404 | 54 | 138 | 0.0 | 0.0 | 0.27 | 0.33 | 0.33 | 92 | 1006.2 |
| 20260506004905 | 54 | 138 | 0.0 | 0.0 | 0.27 | 0.33 | 0.33 | 92 | 1006.0 |
| 20260506004405 | 54 | 138 | 0.0 | 0.0 | 0.28 | 0.33 | 0.33 | 92 | 1006.1 |
| 20260506003905 | 54 | 138 | 0.0 | 0.0 | 0.28 | 0.33 | 0.33 | 92 | 1006.2 |
| 20260506003404 | 54 | 138 | 0.0 | 0.0 | 0.27 | 0.32 | 0.32 | 91 | 1006.2 |
| 20260506002904 | 54 | 138 | 0.0 | 0.0 | 0.26 | 0.31 | 0.31 | 91 | 1006.2 |
| 20260506002404 | 55 | 138 | 0.0 | 0.0 | 0.26 | 0.30 | 0.30 | 91 | 1006.3 |
| 20260506001904 | 55 | 138 | 0.0 | 0.0 | 0.24 | 0.28 | 0.28 | 91 | 1006.4 |
| 20260506001404 | 55 | 138 | 0.0 | 0.0 | 0.23 | 0.27 | 0.27 | 91 | 1006.4 |
| 20260506000404 | 56 | 141 | 0.0 | 0.0 | 0.19 | 0.23 | 0.23 | 88 | 1006.5 |
| 20260505235904 | 57 | 117 | 0.9 | 15.6 | 0.15 | 0.19 | 0.19 | 89 | 1006.8 |
| 20260505234905 | 58 | 267 | 0.0 | 0.0 | 0.02 | 0.06 | 0.06 | 90 | 1005.7 |
| 20260505233905 | 58 | 267 | 0.0 | 0.0 | 0.02 | 0.05 | 0.05 | 90 | 1005.2 |
| 20260505233404 | 59 | 267 | 0.0 | 0.0 | 0.02 | 0.05 | 0.05 | 89 | 1005.2 |
| 20260505232905 | 59 | 267 | 0.0 | 0.0 | 0.02 | 0.05 | 0.05 | 89 | 1005.1 |
| 20260505232404 | 59 | 267 | 0.0 | 0.0 | 0.01 | 0.04 | 0.04 | 89 | 1005.2 |
| 20260505231404 | 59 | 267 | 0.0 | 0.0 | 0.01 | 0.04 | 0.04 | 88 | 1005.2 |
| 20260505230904 | 59 | 267 | 0.0 | 0.0 | 0.01 | 0.04 | 0.04 | 88 | 1005.2 |
| 20260505230405 | 59 | 267 | 0.0 | 0.0 | 0.01 | 0.04 | 0.04 | 88 | 1005.2 |
| 20260505225405 | 60 | 267 | 0.0 | 0.0 | 0.01 | 0.04 | 0.04 | 87 | 1005.3 |
| 20260505224904 | 60 | 267 | 0.0 | 0.0 | 0.01 | 0.04 | 0.04 | 87 | 1005.3 |
| 20260505224405 | 60 | 267 | 0.0 | 0.0 | 0.01 | 0.04 | 0.04 | 87 | 1005.3 |
| 20260505223905 | 60 | 267 | 0.0 | 0.0 | 0.00 | 0.03 | 0.03 | 87 | 1005.5 |
| 20260505223405 | 60 | 267 | 0.0 | 0.0 | 0.00 | 0.03 | 0.03 | 86 | 1005.5 |
| 20260505222905 | 60 | 267 | 0.0 | 0.0 | 0.00 | 0.03 | 0.03 | 86 | 1005.6 |
| 20260505222404 | 61 | 267 | 0.0 | 0.0 | 0.00 | 0.03 | 0.03 | 85 | 1005.5 |
| 20260505221904 | 61 | 265 | 0.0 | 0.0 | 0.00 | 0.03 | 0.03 | 86 | 1005.4 |
| 20260505221404 | 61 | 256 | 0.0 | 0.0 | 0.00 | 0.03 | 0.03 | 86 | 1005.5 |
| 20260505220904 | 61 | 256 | 0.0 | 0.9 | 0.00 | 0.03 | 0.03 | 85 | 1005.6 |
| 20260505220405 | 61 | 256 | 0.0 | 0.9 | 0.00 | 0.03 | 0.03 | 86 | 1005.5 |
| 20260505215904 | 61 | 256 | 0.0 | 0.0 | 0.01 | 0.03 | 0.03 | 85 | 1005.4 |
| 20260505215405 | 61 | 256 | 0.0 | 0.0 | 0.01 | 0.03 | 0.03 | 86 | 1005.4 |
| 20260505214904 | 61 | 256 | 0.0 | 0.0 | 0.02 | 0.03 | 0.03 | 85 | 1005.2 |
| 20260505214404 | 61 | 256 | 0.0 | 0.0 | 0.02 | 0.03 | 0.03 | 85 | 1005.2 |
| 20260505213904 | 61 | 256 | 0.0 | 0.0 | 0.02 | 0.03 | 0.03 | 85 | 1005.1 |
| 20260505213404 | 61 | 256 | 0.0 | 0.0 | 0.02 | 0.03 | 0.03 | 87 | 1005.0 |
| 20260505212905 | 61 | 256 | 0.0 | 0.0 | 0.02 | 0.03 | 0.03 | 86 | 1004.9 |
| 20260505212404 | 62 | 256 | 0.0 | 0.0 | 0.02 | 0.03 | 0.03 | 85 | 1005.0 |
| 20260505211904 | 62 | 256 | 0.0 | 0.0 | 0.02 | 0.03 | 0.03 | 84 | 1005.0 |
| 20260505211404 | 62 | 256 | 0.0 | 0.0 | 0.02 | 0.03 | 0.03 | 81 | 1005.1 |
| 20260505210904 | 63 | 256 | 0.0 | 0.0 | 0.02 | 0.03 | 0.03 | 78 | 1005.2 |
| 20260505210404 | 64 | 256 | 0.0 | 0.0 | 0.02 | 0.03 | 0.03 | 76 | 1005.4 |
| 20260505205904 | 65 | 271 | 0.0 | 0.0 | 0.01 | 0.02 | 0.02 | 74 | 1005.3 |
| 20260505205404 | 66 | 270 | 0.9 | 4.3 | 0.01 | 0.02 | 0.02 | 71 | 1005.2 |
| 20260505204404 | 67 | 263 | 0.9 | 7.0 | 0.00 | 0.01 | 0.01 | 64 | 1004.6 |
| 20260505203904 | 67 | 275 | 0.0 | 10.4 | 0.00 | 0.01 | 0.01 | 64 | 1004.5 |
| 20260505203404 | 67 | 268 | 0.0 | 0.0 | 0.00 | 0.01 | 0.01 | 64 | 1004.5 |
| 20260505202904 | 67 | 237 | 0.0 | 4.3 | 0.00 | 0.01 | 0.01 | 65 | 1004.6 |
| 20260505201905 | 67 | 205 | 0.0 | 0.0 | 0.00 | 0.01 | 0.01 | 64 | 1004.6 |
| 20260505201404 | 67 | 207 | 0.0 | 7.0 | 0.00 | 0.01 | 0.01 | 64 | 1004.7 |
| 20260505200904 | 67 | 286 | 0.0 | 10.4 | 0.00 | 0.01 | 0.01 | 63 | 1004.8 |
| 20260505200404 | 67 | 257 | 0.9 | 10.4 | 0.00 | 0.01 | 0.01 | 64 | 1004.8 |
| 20260505195904 | 67 | 249 | 0.0 | 5.2 | 0.00 | 0.01 | 0.01 | 64 | 1004.8 |
| 20260505194404 | 67 | 250 | 0.0 | 4.3 | 0.00 | 0.01 | 0.01 | 64 | 1004.8 |
| 20260505193904 | 67 | 251 | 0.9 | 4.3 | 0.00 | 0.01 | 0.01 | 63 | 1005.1 |
| 20260505193404 | 67 | 243 | 0.0 | 0.9 | 0.00 | 0.01 | 0.01 | 64 | 1005.1 |
| 20260505192905 | 67 | 254 | 0.0 | 5.2 | 0.00 | 0.01 | 0.01 | 64 | 1005.2 |
| 20260505192404 | 66 | 262 | 0.9 | 4.3 | 0.00 | 0.01 | 0.01 | 64 | 1005.2 |
| 20260505191904 | 66 | 267 | 0.0 | 12.2 | 0.00 | 0.01 | 0.01 | 64 | 1005.4 |
| 20260505191404 | 66 | 234 | 0.9 | 5.2 | 0.00 | 0.01 | 0.01 | 65 | 1005.5 |
| 20260505190904 | 66 | 255 | 0.0 | 4.3 | 0.00 | 0.01 | 0.01 | 65 | 1005.6 |
| 20260505190404 | 66 | 263 | 1.7 | 7.0 | 0.00 | 0.01 | 0.01 | 65 | 1005.7 |
| 20260505185404 | 67 | 281 | 0.0 | 2.6 | 0.00 | 0.01 | 0.01 | 63 | 1005.5 |
| 20260505184904 | 67 | 275 | 0.0 | 2.6 | 0.00 | 0.01 | 0.01 | 63 | 1005.5 |
| 20260505182904 | 68 | 272 | 0.0 | 7.8 | 0.00 | 0.01 | 0.01 | 62 | 1005.2 |
| 20260505181404 | 68 | 268 | 0.0 | 12.2 | 0.00 | 0.01 | 0.01 | 61 | 1005.1 |
| 20260505180904 | 68 | 272 | 3.5 | 12.2 | 0.00 | 0.01 | 0.01 | 61 | 1005.1 |
| 20260505180404 | 68 | 281 | 0.9 | 7.0 | 0.00 | 0.01 | 0.01 | 61 | 1005.0 |
| 20260505175904 | 68 | 252 | 0.0 | 5.2 | 0.00 | 0.01 | 0.01 | 60 | 1005.1 |
| 20260505175404 | 68 | 234 | 1.7 | 10.4 | 0.00 | 0.01 | 0.01 | 59 | 1004.9 |
| 20260505174405 | 69 | 205 | 1.7 | 7.0 | 0.00 | 0.01 | 0.01 | 60 | 1004.9 |
| 20260505173904 | 69 | 261 | 5.2 | 18.2 | 0.00 | 0.01 | 0.01 | 60 | 1004.9 |
| 20260505173404 | 68 | 280 | 1.7 | 12.2 | 0.00 | 0.01 | 0.01 | 60 | 1004.8 |
| 20260505172904 | 68 | 191 | 0.9 | 4.3 | 0.00 | 0.01 | 0.01 | 62 | 1004.9 |
| 20260505172404 | 68 | 244 | 4.3 | 10.4 | 0.00 | 0.01 | 0.01 | 61 | 1004.9 |
| 20260505171904 | 68 | 269 | 1.7 | 7.0 | 0.00 | 0.01 | 0.01 | 61 | 1005.0 |
| 20260505171404 | 69 | 262 | 0.0 | 4.3 | 0.00 | 0.01 | 0.01 | 61 | 1005.0 |
| 20260505170404 | 69 | 215 | 2.6 | 21.7 | 0.00 | 0.01 | 0.01 | 60 | 1005.0 |
| 20260505165904 | 69 | 248 | 6.1 | 14.8 | 0.00 | 0.01 | 0.01 | 59 | 1005.0 |
| 20260505165405 | 69 | 264 | 4.3 | 19.1 | 0.00 | 0.01 | 0.01 | 59 | 1004.9 |
| 20260505164405 | 71 | 185 | 4.3 | 12.2 | 0.00 | 0.01 | 0.01 | 56 | 1004.8 |
| 20260505163904 | 71 | 258 | 6.1 | 19.1 | 0.00 | 0.01 | 0.01 | 56 | 1004.7 |
| 20260505163405 | 72 | 272 | 4.3 | 18.2 | 0.00 | 0.01 | 0.01 | 55 | 1004.6 |
| 20260505162904 | 72 | 206 | 2.6 | 18.2 | 0.00 | 0.01 | 0.01 | 59 | 1004.5 |
| 20260505162404 | 72 | 248 | 0.9 | 13.9 | 0.00 | 0.01 | 0.01 | 58 | 1004.5 |
| 20260505161904 | 71 | 221 | 3.5 | 18.2 | 0.00 | 0.01 | 0.01 | 58 | 1004.5 |
| 20260505161404 | 71 | 282 | 7.0 | 14.8 | 0.00 | 0.01 | 0.01 | 55 | 1004.3 |
| 20260505160404 | 70 | 261 | 7.8 | 13.9 | 0.00 | 0.01 | 0.01 | 57 | 1004.2 |
| 20260505152904 | 68 | 199 | 1.7 | 18.2 | 0.00 | 0.01 | 0.01 | 61 | 1004.7 |
| 20260505152404 | 69 | 225 | 8.7 | 19.1 | 0.00 | 0.01 | 0.01 | 59 | 1004.8 |
| 20260505151904 | 68 | 243 | 7.0 | 18.2 | 0.00 | 0.01 | 0.01 | 62 | 1004.7 |
| 20260505150904 | 67 | 242 | 8.7 | 18.2 | 0.00 | 0.01 | 0.01 | 62 | 1004.9 |
| 20260505150404 | 67 | 276 | 4.3 | 13.9 | 0.00 | 0.01 | 0.01 | 62 | 1004.8 |
| 20260505140404 | 63 | 254 | 3.5 | 13.9 | 0.00 | 0.02 | 0.01 | 73 | 1004.5 |
| 20260505124904 | 61 | 212 | 0.0 | 0.0 | 0.01 | 0.02 | 0.01 | 75 | 1004.1 |
| 20260505124404 | 61 | 217 | 0.0 | 10.4 | 0.01 | 0.02 | 0.01 | 75 | 1004.0 |
| 20260505123904 | 61 | 228 | 0.9 | 5.2 | 0.01 | 0.02 | 0.01 | 75 | 1003.7 |
| 20260505122904 | 62 | 256 | 1.7 | 7.0 | 0.01 | 0.02 | 0.01 | 73 | 1004.1 |
| 20260505122404 | 62 | 259 | 0.0 | 0.9 | 0.01 | 0.02 | 0.01 | 71 | 1004.1 |
| 20260505121904 | 63 | 208 | 0.0 | 7.0 | 0.00 | 0.01 | 0.00 | 71 | 1004.0 |
| 20260505121404 | 63 | 220 | 0.9 | 7.8 | 0.00 | 0.01 | 0.00 | 71 | 1004.2 |
| 20260505120904 | 63 | 243 | 1.7 | 7.8 | 0.00 | 0.01 | 0.00 | 68 | 1004.3 |
| 20260505115904 | 63 | 215 | 1.7 | 13.9 | 0.00 | 0.01 | 0.00 | 68 | 1003.9 |
| 20260505115404 | 63 | 207 | 0.0 | 2.6 | 0.00 | 0.01 | 0.00 | 67 | 1003.9 |
| 20260505114904 | 63 | 226 | 2.6 | 7.0 | 0.00 | 0.01 | 0.00 | 67 | 1003.9 |
| 20260505114404 | 63 | 213 | 0.9 | 5.2 | 0.00 | 0.01 | 0.00 | 67 | 1003.9 |
| 20260505113404 | 63 | 208 | 0.9 | 2.6 | 0.00 | 0.01 | 0.00 | 67 | 1003.7 |
| 20260505112904 | 63 | 248 | 4.3 | 7.0 | 0.00 | 0.01 | 0.00 | 66 | 1003.7 |
| 20260505112404 | 63 | 234 | 1.7 | 12.2 | 0.00 | 0.01 | 0.00 | 67 | 1003.6 |
| 20260505111904 | 63 | 259 | 0.9 | 12.2 | 0.00 | 0.01 | 0.00 | 67 | 1003.6 |
| 20260505111404 | 63 | 258 | 0.9 | 10.4 | 0.00 | 0.01 | 0.00 | 66 | 1003.6 |
| 20260505110904 | 63 | 243 | 0.9 | 7.0 | 0.00 | 0.01 | 0.00 | 67 | 1003.6 |
| 20260505101904 | 63 | 252 | 0.0 | 5.2 | 0.00 | 0.01 | 0.00 | 65 | 1002.8 |
| 20260505101404 | 64 | 264 | 2.6 | 11.3 | 0.00 | 0.01 | 0.00 | 65 | 1002.6 |
| 20260505100904 | 64 | 250 | 1.7 | 10.4 | 0.00 | 0.01 | 0.00 | 65 | 1002.6 |
| 20260505100403 | 64 | 215 | 1.7 | 7.8 | 0.00 | 0.01 | 0.00 | 64 | 1002.6 |
| 20260505095904 | 64 | 212 | 5.2 | 14.8 | 0.00 | 0.01 | 0.00 | 64 | 1002.6 |
| 20260505095403 | 64 | 214 | 0.9 | 11.3 | 0.00 | 0.01 | 0.00 | 65 | 1002.5 |
| 20260505094404 | 64 | 268 | 0.9 | 7.8 | 0.00 | 0.01 | 0.00 | 65 | 1002.4 |
| 20260505093904 | 64 | 224 | 6.1 | 7.8 | 0.00 | 0.01 | 0.00 | 65 | 1002.3 |
| 20260505093404 | 64 | 209 | 5.2 | 13.9 | 0.00 | 0.01 | 0.00 | 65 | 1002.3 |
| 20260505092904 | 64 | 263 | 5.2 | 13.9 | 0.00 | 0.01 | 0.00 | 66 | 1002.4 |
| 20260505092404 | 63 | 248 | 0.9 | 7.8 | 0.00 | 0.01 | 0.00 | 66 | 1002.3 |
| 20260505091904 | 63 | 202 | 4.3 | 13.9 | 0.00 | 0.01 | 0.00 | 66 | 1002.2 |
| 20260505091404 | 63 | 238 | 2.6 | 13.9 | 0.00 | 0.01 | 0.00 | 67 | 1002.2 |
| 20260505090904 | 63 | 261 | 0.9 | 4.3 | 0.00 | 0.01 | 0.00 | 68 | 1002.2 |
| 20260505085904 | 63 | 237 | 0.0 | 0.0 | 0.00 | 0.01 | 0.00 | 68 | 1002.1 |
| 20260505085404 | 63 | 247 | 0.9 | 5.2 | 0.00 | 0.01 | 0.00 | 69 | 1002.1 |
| 20260505084904 | 63 | 224 | 1.7 | 13.9 | 0.00 | 0.01 | 0.00 | 70 | 1002.1 |
| 20260505084404 | 63 | 253 | 2.6 | 11.3 | 0.00 | 0.01 | 0.00 | 70 | 1002.2 |
| 20260505083403 | 64 | 270 | 0.9 | 7.0 | 0.00 | 0.01 | 0.00 | 67 | 1002.0 |
| 20260505082904 | 65 | 249 | 4.3 | 12.2 | 0.00 | 0.01 | 0.00 | 63 | 1001.9 |
| 20260505082404 | 65 | 225 | 4.3 | 7.8 | 0.00 | 0.01 | 0.00 | 63 | 1001.9 |
| 20260505081904 | 65 | 261 | 3.5 | 12.2 | 0.00 | 0.01 | 0.00 | 63 | 1001.7 |
| 20260505081404 | 64 | 219 | 4.3 | 7.0 | 0.00 | 0.01 | 0.00 | 63 | 1001.8 |
| 20260505080904 | 64 | 220 | 0.0 | 7.0 | 0.00 | 0.01 | 0.00 | 64 | 1001.6 |
| 20260505080404 | 64 | 272 | 2.6 | 7.8 | 0.00 | 0.01 | 0.00 | 64 | 1001.5 |
| 20260505075904 | 64 | 234 | 1.7 | 7.8 | 0.00 | 0.01 | 0.00 | 64 | 1001.5 |
| 20260505075404 | 64 | 228 | 1.7 | 12.2 | 0.00 | 0.01 | 0.00 | 64 | 1001.4 |
| 20260505074904 | 64 | 261 | 1.7 | 7.0 | 0.00 | 0.01 | 0.00 | 64 | 1001.4 |
| 20260505074404 | 64 | 208 | 0.0 | 4.3 | 0.00 | 0.01 | 0.00 | 65 | 1001.4 |
| 20260505073904 | 64 | 177 | 0.0 | 0.9 | 0.00 | 0.01 | 0.00 | 65 | 1001.4 |
| 20260505073404 | 64 | 282 | 0.9 | 7.0 | 0.00 | 0.01 | 0.00 | 64 | 1001.3 |
| 20260505072903 | 64 | 239 | 0.9 | 7.8 | 0.00 | 0.01 | 0.00 | 64 | 1001.4 |
| 20260505072404 | 64 | 219 | 0.9 | 7.8 | 0.00 | 0.01 | 0.00 | 65 | 1001.4 |
| 20260505071904 | 64 | 267 | 0.0 | 5.2 | 0.00 | 0.01 | 0.00 | 65 | 1001.5 |
| 20260505071404 | 64 | 225 | 0.9 | 10.4 | 0.00 | 0.01 | 0.00 | 65 | 1001.4 |
| 20260505070904 | 64 | 214 | 0.0 | 0.9 | 0.00 | 0.01 | 0.00 | 65 | 1001.4 |
| 20260505070404 | 64 | 212 | 1.7 | 7.0 | 0.00 | 0.01 | 0.00 | 65 | 1001.4 |
| 20260505065904 | 64 | 260 | 0.9 | 7.8 | 0.00 | 0.01 | 0.00 | 65 | 1001.4 |
| 20260505065404 | 64 | 251 | 0.9 | 5.2 | 0.00 | 0.01 | 0.00 | 66 | 1001.4 |
| 20260505064903 | 64 | 230 | 0.0 | 5.2 | 0.00 | 0.01 | 0.00 | 65 | 1001.5 |
| 20260505064404 | 64 | 230 | 0.9 | 5.2 | 0.00 | 0.01 | 0.00 | 65 | 1001.5 |
| 20260505063904 | 64 | 257 | 0.0 | 7.0 | 0.00 | 0.01 | 0.00 | 65 | 1001.6 |
| 20260505063403 | 64 | 226 | 0.9 | 5.2 | 0.00 | 0.01 | 0.00 | 65 | 1001.6 |
| 20260505062904 | 64 | 251 | 0.0 | 5.2 | 0.00 | 0.01 | 0.00 | 65 | 1001.6 |
| 20260505062404 | 64 | 276 | 0.0 | 0.9 | 0.00 | 0.01 | 0.00 | 65 | 1001.7 |
| 20260505061904 | 64 | 269 | 0.9 | 5.2 | 0.00 | 0.01 | 0.00 | 65 | 1001.8 |
| 20260505061404 | 64 | 249 | 0.0 | 7.0 | 0.00 | 0.01 | 0.00 | 65 | 1001.8 |
| 20260505060904 | 64 | 267 | 0.0 | 4.3 | 0.00 | 0.01 | 0.00 | 64 | 1001.9 |
| 20260505055404 | 64 | 274 | 0.9 | 5.2 | 0.00 | 0.01 | 0.00 | 64 | 1002.2 |
| 20260505054903 | 64 | 159 | 1.7 | 7.0 | 0.00 | 0.01 | 0.00 | 65 | 1002.3 |
| 20260505053904 | 64 | 237 | 0.0 | 7.8 | 0.00 | 0.01 | 0.00 | 65 | 1002.4 |
| 20260505053404 | 64 | 262 | 1.7 | 5.2 | 0.00 | 0.01 | 0.00 | 65 | 1002.4 |
| 20260505052405 | 64 | 261 | 0.9 | 5.2 | 0.00 | 0.01 | 0.00 | 66 | 1002.4 |
| 20260505051905 | 64 | 186 | 0.9 | 5.2 | 0.00 | 0.01 | 0.00 | 66 | 1002.5 |
| 20260505051405 | 64 | 152 | 0.0 | 2.6 | 0.00 | 0.01 | 0.00 | 67 | 1002.5 |
| 20260505050905 | 64 | 240 | 0.0 | 4.3 | 0.00 | 0.01 | 0.00 | 67 | 1002.6 |
| 20260505050405 | 64 | 240 | 1.7 | 7.0 | 0.00 | 0.01 | 0.00 | 67 | 1002.6 |